Regional Weather Roundup
Issued by NWS

Home | Current Version | Previous Version | Graphics & Text | Print | Product List | Glossary On
Versions: 1 2 3 4 5 6 7 8 9 10 11 12 13 14 15 16 17 18 19 20 21 22 23 24 25 26 27 28
000
ASUS45 KBOI 291310
RWRID
WEATHER ROUNDUP FOR IDAHO
NATIONAL WEATHER SERVICE BOISE ID
700 AM MDT WED OCT 29 2014

NOTE: "FAIR" INDICATES FEW OR NO CLOUDS BELOW 12000 FEET
WITH NO SIGNIFICANT WEATHER AND/OR OBSTRUCTIONS TO VISIBILITY

IDZ012-014-291400-
SOUTHWEST IDAHO


CITY           SKY/WX    TMP DP  RH WIND       PRES   REMARKS
BOISE          CLOUDY    46  36  68 NW3       30.14R
CALDWELL       CLOUDY    45  34  65 MISG      30.19R
MOUNTAIN HOME  PTCLDY    40  27  58 E12       30.17R WCI  33
$$

IDZ016-017-291400-
SOUTHCENTRAL IDAHO


CITY           SKY/WX    TMP DP  RH WIND       PRES   REMARKS
BURLEY         CLOUDY    38  27  64 CALM      30.21R
JEROME         MOCLDY    41  23  48 E9        30.20S
TWIN FALLS     PTCLDY    45  25  45 S8        30.20S
$$

IDZ019>023-291400-
SOUTHEAST IDAHO


CITY           SKY/WX    TMP DP  RH WIND       PRES   REMARKS
IDAHO FALLS    CLOUDY    32  25  75 N6        30.24R WCI  26
POCATELLO      CLOUDY    34  24  67 NE5       30.23R WCI  30
REXBURG        MOCLDY    30  22  72 E7        30.23S WCI  23
$$

IDZ006-010-011-018-031-032-291400-
CENTRAL IDAHO MOUNTAINS


CITY           SKY/WX    TMP DP  RH WIND       PRES   REMARKS
MCCALL         MOCLDY    38  35  89 N3        30.16R
HAILEY         CLEAR     36  25  64 NW7       30.23S WCI  30
STANLEY          N/A     37  33  85 VRB5      30.19S WCI  33
SALMON         MOCLDY    34  28  80 CALM      30.14R
CHALLIS        LGT RAIN  36  31  82 CALM      30.17R
$$

IDZ002-004-006-007-026-291400-
NORTHERN IDAHO


CITY           SKY/WX    TMP DP  RH WIND       PRES   REMARKS
LEWISTON       MOCLDY    47  45  93 S3        30.11R
LOWELL           N/A     47  45  93 N3        30.15S
COEUR D`ALENE  CLOUDY    45  43  93 NW3       30.05R
MULLAN PASS    FOG       36  36 100 SW13G21   30.07R VSB 3/4 WCI  27
$$



USA.gov is the U.S. government's official web portal to all federal, state and local government web resources and services.